Flag for Australia Weather past 2 weeks in Currie, Tasmania, Australia

Now
63 °F

Mild.


Feels Like: 63 °F
Forecast: 58 / 76 °F
Wind: 8 mph from Southwest

Location: King Island Airport

Current Time: Feb 27, 2015 at 12:37:36 PM

Latest Report: Feb 27, 2015 at 11:00 AM


Visibility: N/A

Pressure: 29.88 "Hg

Humidity: 55%

Dew point: 47 °F

Location of CurrieLocation

Historic Weather in Currie — Graph

°F

Currie temperature yesterday

Maximum temperature yesterday: 66 °F (at 11:00 AM)
Minimum temperature yesterday: 59 °F (at 11:00 PM)
Average temperature yesterday: 62 °F

Past Weeks' High & Low Weather Summary

 TemperatureHumidityPressure
High89 °F (Feb 22, 1:00 PM)100% (Feb 21, 1:00 AM)30.32 "Hg (Feb 21, 1:00 AM)
Low49 °F (Feb 27, 7:00 AM)30% (Feb 22, 1:00 PM)29.76 "Hg (Feb 23, 5:00 AM)
Average64 °F80%30.03 "Hg
* Reported Feb 12 11:00 AM — Feb 27 11:00 AM, Currie, Weather by CustomWeather, © 2015

Note: Actual official high and low records may vary slightly from our data, if they occured in-between our weather recording intervals... More about our weather records

Advertising

Currie weather history for previous 24 hours

 ConditionsComfort  
Time TempWeatherWind HumidityBarometerVisibility
11:00 AM
Fri, Feb 27
63 °FMild.8 mph55%29.88 "HgN/A
10:00 AM62 °FRefreshingly cool.8 mph58%29.88 "HgN/A
9:00 AM59 °FOvercast.8 mph64%29.89 "HgN/A
8:00 AM53 °FCool.6 mph90%29.87 "HgN/A
7:00 AM49 °FCool.No wind91%29.86 "HgN/A
6:00 AM49 °FCool.6 mph84%29.84 "HgN/A
5:00 AM54 °FCool.7 mph82%29.85 "HgN/A
4:00 AM52 °FCool.7 mph89%29.85 "HgN/A
3:00 AM55 °FPassing clouds.7 mph88%29.85 "HgN/A
2:00 AM57 °FCool.7 mph86%29.87 "HgN/A
1:00 AM58 °FCool.5 mph89%29.88 "HgN/A
12:00 AM58 °FPassing clouds.6 mph91%29.87 "HgN/A
11:00 PM
Thu, Feb 26
59 °FCool.6 mph90%29.88 "HgN/A
10:00 PM60 °FCool.7 mph90%29.88 "HgN/A
9:00 PM61 °FOvercast.7 mph89%29.86 "HgN/A
8:00 PM62 °FCool.9 mph89%29.83 "HgN/A
7:00 PM64 °FMild.8 mph87%29.82 "HgN/A
6:00 PM65 °FLow clouds.13 mph84%29.82 "HgN/A
Weather by CustomWeather, © 2015

See weather overviewHow to use our weather pages